User: anonymous   Login
Location: Unspecified
(0.0000°N, 0.0000°E)
Time: 11:54:56
(UTC+00:00)
Language:

Skynet 4B - Orbit

View from above orbital plane
View from above orbital plane
View from above satellite
View from above satellite

Ground track
Ground track

The orbit data is extracted from the following two-line orbital elements,

1 19687U 88109A   19080.60771306 -.00000363 +00000-0 +00000-0 0  9998
2 19687 015.2705 358.8028 0006976 307.3351 216.7375 00.99677937091803
Epoch (UTC): 21 March 2019 14:35:06
Eccentricity: 0.0006976
inclination: 15.2705°
perigee height: 35924 km
apogee height: 35983 km
right ascension of ascending node: 358.8028°
argument of perigee: 307.3351°
revolutions per day: 0.99677937
mean anomaly at epoch: 216.7375°
orbit number at epoch: 9180

The dashed part of the orbit path shows where the satellite is in the earth's shadow,  

DLR